Simultaneous Nadir Overpasses (SNOs) Predictions

Prediction of SNOs between NOAA-20 and NOAA-19 Satellite Orbit:

Table of predicted SNOs for the next 14.0 days since TLE Epoch: 8/3/2024
Index Date (NOAA-20) Time (NOAA-20) Lat,Lon (NOAA-20) SZA (NOAA-20 ) Date (NOAA-19) Time (NOAA-19) Lat,Lon (NOAA-19) SZA (NOAA-19 ) Distance(km) Time Diff (sec)
1 08/09/2024 23:02:12 -72.28, 7.02 123.07 08/09/2024 23:01:03 -72.29, 4.86 122.91 73.06 69
2 08/09/2024 23:53:07 72.80, 173.29 57.51 08/09/2024 23:51:53 72.78, 173.15 57.52 4.98 74
3 08/10/2024 00:43:52 -72.85, -19.49 122.43 08/10/2024 00:42:49 -72.83, -19.49 122.43 2.01 63
4 08/10/2024 01:34:38 72.86, 147.80 57.60 08/10/2024 01:33:49 72.87, 147.86 57.62 2.60 49
5 08/10/2024 02:25:22 -72.85, -44.88 122.40 08/10/2024 02:24:46 -72.87, -44.89 122.38 1.68 36
6 08/10/2024 03:16:08 72.86, 122.41 57.62 08/10/2024 03:15:47 72.86, 122.34 57.63 2.32 21
7 08/10/2024 04:06:53 -72.91, -70.37 122.32 08/10/2024 04:06:43 -72.91, -70.29 122.32 2.71 10
8 08/10/2024 04:57:39 72.92, 96.92 57.71 08/10/2024 04:57:44 72.90, 96.94 57.68 2.27 5
9 08/10/2024 05:48:23 -72.92, -95.76 122.29 08/10/2024 05:48:41 -72.90, -95.80 122.31 2.56 18
10 08/10/2024 06:39:09 72.93, 71.53 57.73 08/10/2024 06:39:41 72.94, 71.53 57.74 1.40 32
11 08/10/2024 07:29:53 -72.92,-121.15 122.26 08/10/2024 07:30:38 -72.94,-121.21 122.26 2.41 45
12 08/10/2024 08:20:40 72.98, 46.03 57.82 08/10/2024 08:21:38 72.98, 46.13 57.79 3.19 58
13 08/10/2024 09:11:24 -72.98,-146.64 122.18 08/10/2024 09:12:35 -72.98,-146.61 122.20 1.21 71
14 08/10/2024 10:02:19 73.44, 19.65 58.35 08/10/2024 10:03:28 73.36, 21.53 58.15 60.24 69



Historial Predications of SNOs between NOAA-20 and NOAA-19
